Location: Fours
(44.3167°N, 6.7000°E)
Time: 11:23:19
(UTC+00:00)

CSG-1 - Visible Passes

Search period start: 17 August 2022 00:00
Search period end: 27 August 2022 00:00
Orbit: 621 x 623 km, 97.9° (Epoch: 17 August)

Date Brightness Start Highest point End Pass type
(mag) Time Alt. Az. Time Alt. Az. Time Alt. Az.
17 Aug ? 03:49:31 10° ESE 03:53:03 25° ENE 03:56:35 10° NNE visible
18 Aug ? 04:06:58 10° SE 04:10:56 37° ENE 04:14:57 10° N visible
18 Aug ? 19:05:55 10° NNW 19:08:25 15° WNW 19:10:55 10° W visible
19 Aug ? 19:25:39 10° NW 19:26:13 10° WNW 19:26:46 10° WNW visible
20 Aug ? 03:10:58 10° ENE 03:11:26 10° ENE 03:11:55 10° NE visible
21 Aug ? 03:26:44 10° E 03:29:13 15° ENE 03:31:43 10° NNE visible
22 Aug ? 03:43:43 10° ESE 03:47:03 22° ENE 03:50:23 10° NNE visible
23 Aug ? 04:01:05 10° SE 04:04:56 32° ENE 04:08:48 10° N visible
23 Aug ? 18:59:36 10° NNW 19:02:27 17° WNW 19:05:16 10° WSW visible
24 Aug ? 19:18:41 10° NW 19:20:14 12° WNW 19:21:47 10° W visible
26 Aug ? 03:21:10 10° E 03:23:14 13° ENE 03:25:19 10° NNE visible
